Location: Boley
(53.1150°N, 8.2269°W)
Time: 03:21:06
(UTC+00:00)

CSL-04 DEB - Pass Details

Date: 15 May 2026
Orbit: 459 x 501 km, 98.7° (Epoch: 8 June)

Event Time Altitude Azimuth Distance (km) Brightness Sun altitude
Exits shadow 23:10:54 34° 150° (SSE) 823 4.7 -15.9°
Maximum altitude 23:12:20 74° 73° (ENE) 516 4.1 -15.9°
Drops below altitude 10° 23:16:00 10° 347° (NNW) 1,707 8.2 -16.1°
Sets 23:18:06 0° 346° (NNW) 2,602 9.6 -16.2°
